Wind_Speed
10 9 8 7 7 7 6 7 8 8 7 7 7 8 10 9 6 6 6 9 13 13 14 17 16 17 18 17 19 20 20 20 20 20 20 22 23 22 22 22 22 22 22 21 21 20 19 18 17 17 17 17 16 15 15 15 14 14 13 13 13 12 12 12 11 11 11 12 12 12 12 12 12 12 12 12 12 12 12 13 13 14 14 15 16
10 9 7 6 7 7 6 7 6 5 5 6 6 9 11 10 9 8 6 9 10 9 12 16 16 15 14 15 18 17 17 19 19 20 21 22 22 21 22 22 21 21 21 21 21 20 20 18 18 17 17 17 17 17 16 16 16 15 15 14 14 14 14 13 13 13 13 13 13 13 13 14 14 13 13 13 13 13 12 12 12 12 13 13 14
9 8 7 7 7 7 6 6 4 3 4 5 6 8 10 10 10 9 7 8 9 8 11 13 14 13 11 13 15 14 16 17 17 18 19 21 20 20 20 21 20 20 20 20 20 20 20 19 18 18 18 18 18 18 17 17 17 17 17 16 16 15 15 15 14 14 14 14 14 14 14 15 15 15 15 14 14 14 13 13 13 13 12 12 13
8 8 7 7 6 6 5 4 3 2 3 5 5 6 9 10 10 9 7 8 9 8 10 12 10 9 10 12 13 14 16 15 15 16 16 18 18 18 20 21 20 18 18 19 20 20 20 19 19 18 18 18 18 18 19 18 18 18 18 18 17 17 16 16 16 16 16 16 16 16 16 16 16 16 17 17 16 15 15 15 15 14 14 13 12
8 7 6 7 6 6 5 4 4 3 2 4 5 6 8 10 10 8 6 7 8 7 9 10 7 9 10 11 12 12 13 13 13 12 12 13 14 17 20 21 19 17 16 18 19 19 19 19 19 19 18 19 19 19 20 20 19 19 19 19 18 18 18 17 18 18 17 17 17 17 17 17 17 18 18 18 18 17 17 16 16 16 16 15 14
7 5 4 5 6 5 5 4 5 3 3 3 4 6 8 10 10 7 6 6 6 5 7 6 6 9 11 10 10 10 11 11 10 9 8 10 13 16 17 17 16 15 15 16 17 18 18 19 19 19 18 19 19 19 20 20 20 20 20 20 19 19 18 18 18 19 19 19 19 19 18 18 18 19 19 19 19 19 19 18 18 17 17 17 16
6 6 5 4 4 6 4 4 5 4 4 3 5 7 9 11 9 6 7 7 6 5 6 5 5 6 9 10 10 9 8 8 5 6 8 11 14 14 13 12 13 13 13 13 15 16 17 18 18 18 18 18 19 19 20 20 20 20 20 21 20 20 19 19 19 20 20 20 20 20 20 20 20 20 19 19 20 20 20 19 19 18 18 18 17
4 5 5 4 4 6 5 4 5 4 4 4 6 8 9 10 8 7 7 7 6 5 6 6 8 4 5 8 8 7 6 6 5 4 6 9 12 11 10 10 10 9 10 11 12 14 16 17 17 18 18 19 19 19 20 20 20 20 20 21 21 20 20 20 20 20 21 21 21 21 21 21 21 21 20 20 20 20 21 20 19 18 18 18 18
2 3 4 4 4 5 5 5 6 5 5 5 7 9 9 9 8 7 7 7 7 6 6 5 9 6 3 6 7 6 6 6 5 4 4 5 8 10 5 6 5 6 7 8 10 12 14 15 16 17 18 19 19 18 18 19 19 19 20 20 20 20 20 20 20 21 21 21 21 21 21 21 21 21 21 21 21 21 21 21 21 20 19 18 18
0 1 2 1 2 3 4 5 6 5 7 6 7 9 8 8 7 6 7 7 7 7 6 4 8 7 3 4 6 6 6 6 5 5 5 5 7 10 5 3 2 4 6 7 9 11 13 14 16 17 18 17 17 17 17 17 18 18 19 20 20 20 20 20 20 21 22 22 22 22 21 21 21 22 21 21 21 21 21 22 22 21 20 19 18
2 1 2 2 2 2 3 5 5 4 6 8 8 9 8 8 8 6 6 7 8 7 4 3 5 6 5 5 5 5 5 6 6 6 5 5 7 8 6 4 2 3 5 7 9 11 12 14 16 17 17 17 16 16 16 16 16 16 18 19 19 19 20 20 20 21 21 22 22 22 22 22 22 22 22 22 21 22 22 22 22 22 21 19 18
2 1 2 3 2 1 2 5 4 3 5 8 9 10 9 9 9 9 7 7 8 6 3 4 3 4 5 6 6 6 6 7 7 6 5 5 6 6 5 4 4 4 6 6 7 9 11 14 17 18 18 17 17 18 18 18 17 16 16 17 18 18 18 19 19 20 20 21 21 21 22 22 22 22 22 22 21 22 22 23 22 22 21 20 19
4 2 2 3 3 1 2 5 3 2 4 7 8 9 10 9 9 10 8 7 9 7 6 6 5 5 5 6 6 6 7 8 7 6 5 5 5 6 7 5 3 3 5 5 5 5 7 10 14 16 17 15 15 16 18 19 18 17 16 16 17 18 18 18 18 19 19 19 19 20 20 21 21 21 21 21 21 21 22 22 22 22 22 21 20
8 6 4 4 3 1 2 4 3 2 4 6 6 8 9 9 8 9 8 8 9 8 7 7 7 8 7 6 5 6 7 8 7 6 6 6 5 6 7 5 3 2 2 3 3 4 5 6 7 10 12 12 12 12 13 14 14 15 16 17 18 18 17 18 18 18 18 18 19 19 19 20 21 22 22 21 21 21 22 22 22 22 22 22 21
10 8 6 5 3 1 1 3 3 3 4 5 6 7 9 8 8 9 9 9 9 8 8 9 9 9 8 6 5 5 6 6 6 7 7 6 5 5 5 5 4 3 1 1 1 3 5 4 4 6 7 7 9 10 11 11 12 13 14 16 16 16 16 16 17 17 17 18 19 19 19 20 21 21 22 22 22 22 21 21 21 22 22 22 21
9 8 7 6 4 1 0 2 3 2 3 5 6 8 9 8 9 10 10 10 9 10 11 10 9 8 7 6 5 4 5 5 6 7 7 6 5 4 3 3 2 2 1 1 1 1 3 3 2 3 4 3 4 7 8 8 10 10 10 11 12 13 14 14 15 15 16 17 18 18 19 19 20 20 21 21 22 22 22 21 21 21 21 21 21
9 7 7 6 5 3 1 1 2 2 2 3 5 6 7 8 9 9 10 10 10 10 10 9 9 8 8 7 6 4 3 4 4 6 7 6 5 5 5 3 2 2 1 0 1 1 2 3 2 2 2 2 1 2 4 4 6 7 8 9 10 11 11 11 12 12 13 14 15 17 18 19 20 20 20 21 21 22 21 21 21 21 21 21 21
10 8 6 6 6 4 2 0 2 3 2 4 5 5 6 6 7 8 9 9 9 9 8 8 9 9 9 8 6 4 4 5 4 6 8 7 6 7 6 5 5 5 3 2 4 5 5 4 4 4 3 2 2 2 3 4 5 7 8 8 8 8 8 9 10 10 11 12 13 14 15 18 20 20 21 21 22 22 21 21 21 21 21 21 21
11 10 8 7 7 6 4 2 2 4 4 5 5 5 6 6 5 6 7 7 7 7 7 8 8 9 9 8 6 6 7 7 6 8 10 10 8 6 4 3 4 4 3 3 5 7 7 6 6 6 4 4 4 4 5 6 6 7 7 8 8 8 9 9 9 10 10 10 10 11 11 13 16 18 20 22 23 23 23 21 20 20 20 20 21
12 12 10 8 7 6 5 3 2 4 6 7 7 7 8 7 6 6 6 5 6 7 7 8 8 8 9 8 7 8 8 7 7 8 9 9 7 4 4 3 3 4 3 3 4 5 7 7 6 5 4 5 5 5 6 7 7 7 8 9 9 9 9 9 9 9 9 9 9 9 9 10 12 15 17 19 21 22 22 21 19 20 20 20 21
13 13 12 11 9 7 5 5 4 3 6 8 8 7 7 7 7 8 7 6 8 8 7 7 7 7 8 8 8 7 7 7 8 8 8 8 7 5 4 3 3 2 2 2 3 3 4 5 4 3 3 4 4 5 6 7 7 8 8 8 8 8 8 9 9 10 10 10 10 10 9 9 10 11 13 15 18 19 20 21 19 19 19 20 21
13 13 13 13 12 10 7 6 4 3 4 5 7 6 6 7 9 9 9 9 10 9 7 6 7 7 8 9 9 8 7 7 8 7 8 8 6 5 4 3 3 2 1 1 1 1 1 3 3 4 3 3 4 4 5 5 6 6 6 7 7 8 8 8 8 9 10 10 10 10 10 10 9 9 10 12 14 16 18 20 20 20 20 22 23
13 13 13 14 15 13 9 7 4 2 4 5 6 6 5 6 8 9 9 9 10 10 8 8 8 8 7 8 8 7 7 8 8 7 7 6 3 4 5 5 3 2 1 1 1 1 1 2 3 4 3 4 4 4 5 5 5 5 6 6 7 7 7 7 7 8 8 9 9 9 8 9 9 9 9 10 11 12 13 15 17 18 19 20 21
12 13 14 15 16 15 12 8 5 1 4 5 5 6 6 6 7 9 9 9 9 9 9 9 10 8 8 9 9 9 9 12 10 7 5 3 3 3 5 4 3 2 1 1 2 2 3 3 3 4 3 2 3 3 4 4 4 5 5 6 6 7 7 7 7 7 7 8 8 8 8 8 9 9 10 11 12 12 12 12 13 14 16 16 17
11 12 14 15 15 16 14 10 6 2 5 6 6 7 7 6 7 8 8 9 9 10 10 11 12 11 12 13 11 11 11 10 10 8 5 3 0 1 3 2 3 2 0 1 2 3 5 5 5 5 5 5 4 4 5 5 5 5 6 6 7 8 8 8 8 7 7 8 8 8 8 8 9 10 10 11 12 13 13 13 12 13 14 16 17
10 11 13 13 14 15 14 12 7 3 4 6 7 7 7 7 7 7 8 9 9 10 11 13 13 12 13 12 10 10 10 9 11 11 10 9 8 6 8 1 6 8 4 3 5 6 6 6 6 7 7 6 6 6 5 5 5 5 6 7 8 8 9 9 9 9 9 9 9 9 9 9 10 10 10 11 12 13 13 13 13 13 12 12 14
9 10 11 11 12 14 14 12 9 5 4 6 7 7 7 7 7 7 8 9 9 9 9 10 12 11 11 11 10 11 12 11 13 13 14 16 15 14 9 5 10 7 2 1 5 6 5 6 6 6 6 6 6 6 5 5 5 5 5 6 7 7 8 8 9 10 10 11 11 11 11 12 12 12 12 12 12 12 13 13 13 13 12 11 11
10 9 8 8 10 12 13 12 9 6 5 5 6 6 8 8 8 8 8 8 8 8 9 10 11 11 11 12 11 12 11 11 12 13 14 16 14 10 5 10 11 8 4 5 2 4 4 5 5 5 5 4 5 5 5 4 4 4 4 5 5 6 6 7 7 8 9 10 11 11 12 13 13 13 14 14 14 13 13 13 13 13 13 12 12
11 10 8 8 9 10 12 11 8 6 4 4 5 5 7 8 7 7 7 7 8 9 10 11 11 11 11 11 11 11 10 9 9 8 9 11 12 11 9 7 8 5 2 2 1 2 2 3 3 3 2 3 4 3 3 3 2 3 3 3 3 5 6 6 7 7 8 8 9 10 11 12 12 13 14 14 15 15 15 15 15 15 15 14 14
14 13 12 12 10 9 10 9 8 6 4 4 5 6 7 8 7 8 8 8 9 10 10 10 10 10 10 10 10 11 12 11 10 9 8 7 10 11 8 8 10 7 5 4 3 1 1 1 1 1 0 0 1 2 2 1 1 2 2 2 3 4 6 6 7 8 8 9 9 9 10 10 11 12 13 14 14 15 16 16 17 17 17 17 17
15 14 14 12 9 6 7 7 6 5 4 4 5 6 7 8 8 8 9 9 10 10 10 11 11 11 11 12 12 13 12 11 10 10 9 8 7 6 5 8 12 9 6 6 4 4 3 3 4 4 4 4 3 2 2 2 2 2 2 4 5 7 8 9 10 10 10 10 10 10 10 10 11 11 12 13 14 14 15 16 16 17 18 18 19
15 15 13 9 6 4 5 6 5 4 4 4 4 5 7 8 8 9 9 10 10 11 11 11 11 12 11 11 11 11 10 10 9 8 7 6 5 4 4 7 10 7 5 6 6 7 6 5 5 6 7 7 6 5 4 5 6 6 7 8 9 10 10 10 11 11 12 12 11 12 12 12 12 12 12 12 13 14 15 15 16 16 17 18 19
15 14 10 7 7 5 5 6 5 4 4 4 4 5 6 7 7 8 9 9 10 10 10 10 10 10 10 9 8 8 7 6 5 5 4 3 3 3 4 7 9 8 9 9 8 8 8 7 7 7 8 9 9 8 7 8 10 11 11 12 13 12 11 10 10 11 12 13 13 13 14 14 14 14 14 14 14 14 15 15 16 16 17 18 18
14 13 7 10 10 7 7 7 6 6 5 5 5 5 6 6 6 6 7 8 9 9 9 9 8 8 7 6 5 4 3 2 1 1 2 3 5 5 6 7 8 9 10 10 10 9 8 7 8 8 8 10 12 12 10 11 13 15 16 15 15 15 13 12 11 12 13 15 15 16 17 17 16 16 16 15 15 15 15 15 16 16 17 18 18
12 11 6 13 12 9 9 9 8 8 7 7 6 6 6 6 6 5 5 6 7 7 6 6 5 4 4 3 2 1 2 3 3 3 4 6 8 8 7 6 6 7 8 9 11 11 11 11 11 11 9 9 13 15 14 13 14 14 15 15 17 19 17 16 16 16 17 17 16 17 18 19 19 19 18 18 17 17 16 16 16 16 17 18 19
9 6 6 14 13 11 11 11 10 9 9 8 7 7 7 7 6 5 5 6 5 4 4 3 3 3 3 4 4 4 5 5 6 6 6 9 10 9 9 10 9 8 8 9 11 11 12 13 13 14 13 12 15 17 17 17 16 15 15 17 21 23 23 24 24 24 24 24 22 20 19 19 20 20 20 20 20 21 20 19 19 19 18 19 20
6 3 8 13 12 11 12 12 12 11 10 9 9 9 9 8 7 6 7 7 5 5 6 6 6 7 7 7 7 7 8 8 8 8 7 9 11 10 10 12 12 10 9 10 11 11 12 13 13 14 15 14 15 15 16 20 21 19 20 22 25 26 26 27 28 28 29 29 27 24 22 20 21 21 21 21 21 22 22 22 22 22 22 22 22
6 5 9 12 12 12 13 14 14 13 12 12 12 12 11 11 10 9 9 10 9 9 10 9 10 11 11 12 11 11 11 11 11 11 9 9 10 11 10 11 14 13 8 8 11 12 12 12 13 14 15 15 15 14 16 20 23 23 23 25 27 27 26 26 27 28 30 31 30 29 27 25 24 24 24 24 24 24 24 24 24 24 24 25 26
7 8 10 12 13 14 16 17 17 16 16 16 16 15 14 14 14 13 13 12 13 13 13 13 14 14 14 14 14 13 14 14 14 14 13 11 11 12 11 11 14 15 11 9 10 12 12 12 14 15 16 17 19 19 20 21 23 25 26 27 27 28 27 27 27 28 30 31 32 32 32 31 30 29 28 28 27 27 26 26 25 25 25 26 27
8 10 12 13 14 16 17 18 19 20 19 19 20 19 18 18 18 17 16 15 16 17 17 18 19 18 16 16 16 17 17 17 16 15 14 14 13 14 13 13 14 14 13 11 11 11 12 12 15 16 17 19 20 22 25 25 26 28 29 29 29 29 29 28 28 29 31 31 31 31 32 33 34 33 32 31 30 29 29 28 26 25 26 26 27
9 11 13 15 16 18 20 20 22 23 22 23 23 22 22 22 21 20 19 19 20 21 21 22 22 21 19 19 19 20 20 19 19 18 17 16 16 17 17 15 14 13 13 12 12 13 13 13 15 17 18 19 21 23 26 28 29 29 29 29 30 30 30 30 28 29 31 33 33 31 31 32 35 35 34 33 33 33 32 31 29 27 27 27 28
10 12 14 16 18 20 22 23 24 25 26 26 26 26 26 25 25 24 23 24 25 25 24 25 25 25 24 23 22 22 23 23 23 22 21 20 19 19 19 16 14 14 14 13 14 15 15 15 16 18 19 20 21 23 25 27 28 28 28 29 30 31 32 32 32 31 31 34 35 33 31 31 34 35 34 34 34 35 35 35 34 31 30 29 30
12 14 15 17 19 20 22 24 27 28 29 29 29 28 28 28 28 27 27 27 28 29 28 28 28 28 28 27 26 25 26 27 27 26 25 23 22 20 20 18 16 16 15 15 15 16 16 16 17 19 20 21 22 23 24 26 27 27 28 30 31 33 34 35 35 34 33 34 37 36 33 31 34 36 34 32 33 35 36 36 37 36 34 33 32
16 16 17 19 21 22 22 23 26 29 31 32 32 31 30 31 31 31 31 31 31 32 33 33 33 33 33 32 32 31 31 30 29 28 27 26 22 20 19 18 17 16 16 16 17 17 18 18 19 20 21 21 22 23 23 25 27 28 30 32 33 35 36 37 38 37 36 37 40 41 39 35 35 37 35 33 32 33 35 35 36 37 36 35 34
19 19 19 20 21 22 23 24 27 30 31 31 31 32 33 34 35 35 34 34 34 35 36 37 37 39 38 37 38 38 36 33 32 32 31 26 21 18 17 17 16 17 17 17 18 19 19 20 20 21 21 20 21 21 22 24 27 29 32 33 34 36 37 38 39 40 39 40 42 44 43 39 37 37 36 34 33 32 33 34 35 36 36 36 36
18 17 18 19 19 20 22 26 30 32 32 31 32 32 32 33 35 37 38 38 38 38 38 39 41 42 41 41 42 42 40 36 34 33 28 22 19 19 18 18 18 18 18 18 18 20 20 21 21 22 21 20 21 22 22 24 27 29 32 33 34 36 38 39 41 41 41 41 42 44 45 42 40 38 37 36 34 33 33 33 33 34 35 35 35
14 15 17 17 18 19 21 24 27 28 30 31 31 32 32 33 35 38 40 41 42 41 41 42 43 43 43 45 45 44 42 38 35 32 25 19 19 20 20 19 19 18 18 19 19 20 21 21 22 22 21 20 22 24 24 26 28 30 32 34 36 38 40 41 42 42 43 43 43 44 46 44 41 39 38 36 35 34 33 32 32 32 33 33 32
17 18 19 19 19 21 23 24 24 25 27 27 26 27 30 32 34 36 37 39 41 42 44 45 45 44 45 46 46 46 43 39 35 31 24 20 20 22 21 20 20 19 20 20 20 21 21 21 21 21 20 21 22 24 26 28 29 31 34 36 38 40 42 43 44 44 44 43 43 44 45 44 41 39 38 36 35 35 33 31 30 30 31 31 31
22 23 23 24 24 24 25 26 27 27 28 27 26 25 26 28 30 32 33 34 34 37 42 45 45 45 47 46 46 46 42 38 32 27 22 20 22 23 22 21 21 20 20 20 21 21 21 20 20 20 21 22 23 25 27 29 31 34 36 39 40 41 43 44 44 44 44 42 42 42 43 41 40 39 38 36 35 33 32 31 30 31 32 32 32
26 26 28 29 28 28 29 30 30 29 29 29 29 28 27 28 30 31 31 31 31 34 38 41 41 43 44 44 45 42 37 33 28 23 21 22 23 23 22 22 22 21 20 21 21 20 20 20 21 22 22 23 25 27 29 31 34 37 39 41 41 41 42 43 43 43 42 40 39 40 39 38 38 37 37 37 35 32 32 32 32 33 33 34 35
29 29 31 32 32 32 32 32 31 31 30 31 31 31 30 30 31 31 33 33 32 33 36 37 39 41 42 43 43 39 33 30 25 22 22 24 24 23 23 22 22 20 19 20 21 20 21 21 22 23 24 25 27 29 31 33 35 38 39 40 41 40 41 41 41 42 41 39 38 38 38 37 36 35 36 38 37 34 33 34 35 35 35 36 37
Wind_Direction
263 260 264 260 255 260 243 223 230 245 250 247 243 228 217 214 215 220 230 237 226 205 208 227 231 223 225 234 237 235 235 238 238 238 244 247 248 246 245 246 246 246 246 247 247 246 246 246 246 246 247 250 252 252 252 253 254 255 257 261 265 269 272 277 282 288 294 300 304 310 314 318 321 326 331 337 343 348 353 358 2 6 10 13 15
262 258 256 250 245 248 227 215 227 244 253 250 238 223 218 218 213 209 218 237 228 204 211 222 230 231 221 226 234 234 237 240 239 241 243 244 246 248 245 244 245 245 245 245 245 244 244 244 245 246 245 246 248 250 251 253 254 254 255 257 259 262 266 269 273 278 283 289 294 299 303 307 310 313 317 320 325 330 335 341 345 350 356 1 5
265 264 264 264 260 256 227 211 227 247 258 257 242 225 217 211 205 197 200 233 224 196 216 222 220 225 216 217 225 229 239 242 242 242 240 240 244 247 246 245 246 245 244 244 244 244 243 242 243 244 245 245 246 249 250 252 253 255 255 256 256 257 261 264 267 271 275 280 284 290 294 298 301 304 307 309 312 316 320 324 328 333 339 346 351
267 263 267 273 273 274 258 222 217 250 266 254 241 222 209 199 193 190 192 226 224 197 215 222 206 200 202 212 216 220 232 236 239 238 233 238 245 248 246 247 248 246 245 245 244 243 243 242 242 243 245 246 247 248 250 251 252 254 255 256 257 257 258 260 264 267 271 275 279 283 287 291 295 298 302 304 306 308 310 312 316 319 324 330 336
272 266 273 280 280 273 262 238 228 244 256 238 227 206 197 193 185 184 195 219 222 211 222 217 188 171 182 201 205 210 221 220 223 225 226 235 239 240 241 243 247 248 246 246 244 242 242 243 243 244 244 246 248 249 250 251 252 253 256 257 258 258 257 258 261 264 267 271 275 278 282 285 289 292 296 300 302 304 305 306 307 309 313 317 322
275 280 279 278 287 275 250 239 237 232 227 216 199 186 184 184 179 184 208 228 224 223 231 204 164 167 167 181 197 208 223 221 210 207 215 227 229 229 234 238 240 243 242 241 241 241 241 242 243 244 245 247 249 250 251 251 253 254 256 258 259 260 260 260 261 263 265 267 271 273 276 279 282 285 289 293 297 299 301 303 303 304 306 308 311
278 282 278 270 282 275 253 238 239 228 223 200 174 180 182 177 174 192 216 232 226 219 227 179 135 161 157 165 192 205 225 241 225 192 195 215 230 226 220 230 232 233 237 239 240 242 243 244 245 245 246 247 248 250 250 251 252 253 255 257 260 261 261 262 262 263 265 266 268 270 272 274 277 279 282 286 289 293 296 299 301 302 304 305 306
287 288 286 275 262 261 257 251 239 223 216 197 174 180 188 184 179 196 215 229 221 212 230 183 133 149 162 157 185 203 209 237 249 215 195 211 236 235 207 212 226 229 235 239 242 244 247 248 249 249 248 248 248 250 251 251 251 253 254 256 258 259 260 261 262 263 265 267 268 269 270 272 274 276 278 281 283 287 290 293 296 298 299 301 303
295 293 284 272 259 254 250 247 234 207 194 188 183 184 191 195 184 189 204 222 219 208 232 193 132 139 173 151 172 195 192 211 238 246 239 227 254 263 217 175 204 234 240 243 248 250 251 252 252 252 251 252 253 255 256 256 256 256 257 258 259 260 261 262 263 264 265 268 270 271 271 272 273 275 277 279 280 282 285 288 290 292 293 295 297
336 305 294 296 311 272 250 250 238 204 190 188 193 191 187 188 186 194 194 201 213 207 221 194 128 133 175 174 178 185 187 201 222 231 245 252 263 278 297 89 156 243 255 256 257 257 257 255 253 254 254 255 256 258 260 261 262 262 262 263 264 266 267 267 268 268 268 269 271 274 275 276 276 276 276 278 279 279 281 284 286 288 290 291 292
67 33 30 50 22 300 283 270 247 212 199 194 200 201 194 194 200 212 198 199 218 214 219 194 134 141 165 185 198 202 206 207 214 221 236 256 268 285 317 356 337 286 269 260 262 264 262 258 256 256 255 254 256 258 258 261 263 264 265 266 267 269 270 271 271 272 274 274 274 275 276 278 277 277 276 277 277 278 278 280 283 286 288 289 290
61 39 51 53 36 315 294 279 259 239 218 199 200 204 204 212 215 212 198 209 231 231 245 233 183 177 177 180 197 212 226 220 216 219 230 251 269 286 301 315 329 318 288 271 266 267 266 262 255 250 250 250 253 256 255 256 258 261 265 267 268 269 270 271 273 274 275 275 274 274 274 276 277 278 277 277 277 276 277 278 280 283 286 288 288
44 28 42 51 47 15 285 288 280 248 229 205 204 208 206 212 213 209 197 206 233 235 238 242 230 227 216 200 196 204 224 229 227 227 230 237 256 278 285 292 303 302 296 295 288 278 276 274 260 251 254 255 253 255 256 256 254 255 262 269 270 270 272 274 274 274 273 273 274 274 275 276 277 278 279 279 278 276 276 277 279 281 284 286 287
42 35 37 62 72 75 273 291 282 242 241 221 213 213 206 207 210 216 212 208 229 240 242 245 243 239 230 222 221 221 227 232 234 233 229 228 245 273 287 298 292 267 283 294 303 304 298 303 294 277 270 263 257 256 256 255 255 257 263 269 269 268 272 276 276 273 273 273 275 277 279 280 279 280 281 281 281 279 277 277 279 280 282 284 287
42 40 41 50 67 110 237 288 281 257 248 233 219 210 205 210 217 226 230 224 230 243 241 227 226 236 233 231 235 232 237 238 233 230 227 226 235 256 274 291 299 307 3 135 279 300 298 321 335 309 291 268 256 253 251 251 254 259 264 269 269 269 273 278 278 277 276 276 276 278 279 281 281 282 283 283 283 281 279 279 280 281 282 283 285
42 42 37 35 53 77 23 294 290 282 244 235 221 206 204 214 222 224 228 233 230 227 235 228 219 226 232 239 240 236 248 240 220 215 215 221 226 237 258 276 305 332 12 62 127 275 309 345 353 324 329 304 256 247 249 248 249 257 267 275 278 279 282 285 285 284 282 281 280 280 279 279 280 281 282 283 283 282 281 280 280 280 282 283 284
41 41 38 34 50 62 17 281 268 274 228 223 220 210 208 210 217 222 223 233 226 206 217 234 229 221 221 236 250 250 235 214 203 205 205 210 218 222 228 228 225 210 187 200 287 266 310 330 328 332 347 350 334 271 261 256 257 266 274 281 287 289 292 294 294 292 288 286 283 281 279 277 278 278 278 279 279 280 281 281 280 279 280 283 285
34 35 37 26 30 36 14 349 228 246 218 202 206 212 221 217 215 225 229 234 231 208 202 223 234 228 223 231 244 243 220 219 231 216 202 198 205 217 222 219 222 222 215 247 276 279 282 282 281 285 291 307 335 307 278 274 276 279 281 284 291 297 302 304 303 301 296 293 289 284 281 278 275 276 277 276 275 275 277 279 281 281 281 283 284
26 26 27 19 17 22 12 350 227 234 245 237 225 216 228 236 229 229 233 235 240 233 216 220 229 231 232 232 231 232 229 234 234 213 207 209 209 220 231 227 239 250 261 265 272 278 277 271 269 271 284 294 291 280 277 282 284 287 292 299 308 314 318 316 313 311 307 305 301 294 290 285 280 276 275 275 277 278 279 279 279 279 279 280 280
19 18 17 15 11 9 6 348 273 220 221 229 235 239 242 245 246 243 242 242 250 249 235 224 215 216 226 225 218 224 229 228 216 204 211 215 207 213 228 233 252 266 277 269 269 277 279 281 281 282 284 279 281 286 288 293 299 304 308 313 320 323 324 324 322 321 321 321 319 313 305 298 290 281 279 279 281 284 287 285 280 276 274 274 275
10 8 6 7 4 360 355 342 327 260 229 215 211 229 243 241 243 248 245 235 237 239 236 231 216 205 211 217 216 215 217 217 202 193 205 208 196 202 216 219 230 237 249 265 268 270 281 291 304 329 314 293 298 303 301 304 306 308 312 317 321 325 326 326 327 325 325 327 330 332 329 323 312 299 291 287 285 286 287 288 286 282 279 277 274
1 2 3 3 360 355 347 340 338 288 251 214 193 204 223 230 236 244 244 235 231 231 228 224 217 204 201 211 213 204 200 199 188 186 201 203 201 204 195 187 202 204 192 205 237 258 304 321 2 44 17 332 341 336 326 325 325 323 325 327 328 330 332 332 331 327 325 327 329 336 341 340 337 329 318 305 297 292 287 286 285 283 282 280 278
355 357 1 1 356 349 342 337 334 287 221 196 187 190 199 220 228 230 233 229 226 226 218 209 210 207 199 199 200 196 183 165 161 173 188 194 226 208 173 162 172 159 146 142 104 88 49 11 21 45 28 340 341 341 340 342 345 344 339 340 342 347 351 351 348 343 338 337 337 340 343 343 343 343 342 338 331 321 309 298 291 287 286 283 281
349 352 352 354 352 346 340 333 325 269 200 193 190 192 193 204 217 219 219 217 215 213 209 201 198 195 190 185 179 177 163 151 152 151 165 218 277 206 167 144 135 105 88 43 11 1 12 17 25 41 48 15 357 355 3 3 1 0 356 357 359 1 3 2 358 354 349 348 348 349 350 349 347 346 347 349 352 352 343 329 315 307 304 300 295
344 346 345 347 348 345 338 329 319 247 201 198 197 202 199 189 198 206 209 209 204 199 197 191 189 188 189 188 183 182 175 166 163 157 174 214 337 234 244 148 107 41 35 132 36 31 34 36 44 53 67 70 55 44 36 29 24 18 10 6 5 4 3 2 359 356 353 352 350 349 350 350 348 346 345 345 348 351 351 346 336 326 317 310 306
338 337 339 341 343 342 334 324 313 277 216 204 205 210 205 196 199 201 200 202 195 191 190 187 189 191 194 196 192 187 185 176 170 169 169 148 138 216 255 199 69 32 36 91 59 57 55 50 55 55 59 66 64 60 51 40 34 25 19 16 11 7 6 4 2 359 357 355 353 352 351 349 348 345 344 343 342 342 344 345 344 341 334 321 310
323 326 334 336 336 337 329 318 306 285 240 212 211 213 212 213 216 210 202 202 197 193 190 187 190 191 189 193 187 177 175 170 169 168 156 146 164 209 223 123 97 79 98 121 42 60 63 52 59 59 55 57 59 61 55 43 34 22 18 17 7 1 2 1 357 355 353 351 350 350 349 348 347 345 343 342 340 338 336 335 334 335 337 336 328
309 313 323 325 329 333 323 310 297 284 260 229 220 215 219 223 224 221 211 202 196 191 186 183 185 184 179 181 178 171 171 173 176 175 166 164 179 192 136 109 123 138 202 256 2 66 77 68 68 60 54 50 43 44 38 30 26 16 6 3 357 357 1 359 356 353 350 347 346 346 345 343 342 341 339 337 336 334 331 329 327 325 325 325 324
292 294 294 303 316 325 316 300 287 279 261 231 217 208 216 221 220 222 214 198 189 183 181 179 179 179 175 173 170 164 160 161 166 170 167 168 165 146 121 131 149 152 227 245 121 92 68 74 86 67 59 48 28 22 26 31 46 40 21 10 7 5 4 359 356 353 350 347 345 343 341 339 338 337 335 333 331 329 328 327 326 325 323 320 317
283 283 285 297 308 313 306 291 278 270 249 223 209 196 204 214 215 216 209 194 186 181 177 175 172 168 160 154 149 144 139 138 139 134 133 145 153 146 145 169 171 170 195 196 178 191 326 331 357 45 44 356 349 345 13 33 60 62 36 9 357 344 338 336 335 338 341 340 337 334 333 332 332 331 329 329 328 326 325 324 322 322 320 319 317
282 280 284 296 297 293 290 275 260 251 231 213 201 189 194 202 203 201 193 184 180 175 168 163 155 147 143 139 137 134 131 130 129 127 127 132 146 144 134 162 173 180 201 217 246 263 265 286 306 316 308 303 300 296 305 306 304 305 308 316 318 317 320 323 326 330 334 333 330 328 328 326 324 322 321 321 321 320 320 319 318 317 315 314 313
286 285 288 285 258 254 264 248 236 229 213 196 188 183 186 190 187 183 179 174 172 167 163 158 148 141 139 136 135 131 128 129 128 128 130 127 137 135 114 156 182 206 237 247 265 271 269 276 289 302 308 305 303 296 289 287 288 291 299 306 308 313 319 321 323 325 324 326 327 326 324 322 320 317 314 313 311 311 311 311 312 311 310 309 307
292 291 283 236 210 219 226 223 213 202 194 186 183 180 181 183 180 181 180 175 171 166 161 154 145 142 139 136 133 130 131 138 138 140 147 145 161 176 175 186 200 222 247 258 265 265 268 275 283 294 299 299 299 298 296 298 299 300 304 308 308 309 310 311 317 321 321 322 324 324 321 319 318 314 312 310 306 304 302 301 302 302 302 302 302
296 297 262 197 192 198 209 217 208 195 192 185 184 181 179 180 180 184 183 177 171 165 160 154 150 150 147 143 138 133 141 165 185 200 212 237 250 244 229 220 218 229 250 271 278 272 273 283 290 293 296 302 303 299 298 298 300 307 313 316 318 316 315 319 320 323 329 329 325 324 323 322 320 317 313 310 307 303 300 298 295 293 293 293 294
302 303 234 187 187 191 204 218 211 202 199 192 186 183 180 178 178 177 175 174 172 169 170 170 171 171 167 165 160 187 246 267 269 275 266 256 262 266 263 260 255 255 264 277 282 285 292 297 298 295 295 303 302 299 300 296 295 306 315 322 328 325 322 326 323 320 326 328 325 325 325 323 321 319 316 314 311 308 304 301 297 293 290 288 286
306 304 193 182 187 190 204 221 219 211 207 201 197 194 192 191 191 187 186 191 193 203 220 227 233 237 221 218 232 239 249 259 263 266 263 262 268 270 271 277 274 260 254 258 267 279 290 296 301 301 303 311 311 309 312 311 309 312 313 322 333 334 330 331 329 325 326 326 326 326 325 321 318 317 315 314 313 311 309 307 304 299 295 290 286
299 267 182 185 192 195 207 223 227 224 218 214 214 212 209 211 214 217 218 223 233 249 261 263 260 262 259 254 255 255 259 265 267 267 261 263 272 273 273 278 275 259 243 248 259 269 279 286 293 297 302 310 315 314 313 315 318 319 317 322 332 335 334 332 331 328 327 325 323 321 319 317 316 313 312 311 309 308 307 307 306 304 301 296 291
280 237 198 198 201 202 211 223 230 231 228 227 227 227 227 228 231 235 237 243 251 256 263 266 262 262 264 265 265 267 273 277 278 279 273 265 268 271 272 274 277 277 264 254 263 269 272 277 283 291 298 303 307 306 305 310 315 316 318 322 326 327 328 327 326 324 322 320 319 317 316 315 314 312 310 309 308 306 305 304 303 302 300 297 294
267 245 224 216 213 211 216 224 231 233 233 234 235 236 237 237 240 243 245 250 255 260 266 269 266 264 263 268 272 273 275 277 278 279 278 272 267 268 271 269 272 280 280 268 270 275 276 282 289 296 303 307 308 308 306 308 312 312 316 321 321 321 322 323 322 320 318 317 317 317 317 316 314 313 311 310 308 306 304 303 301 300 297 294 292
260 252 243 236 230 225 224 228 233 236 237 238 241 242 243 243 244 246 250 253 255 260 265 267 268 269 271 277 281 281 280 278 276 276 276 275 269 266 270 268 265 270 272 269 270 275 283 293 297 299 302 305 307 308 309 311 313 314 317 320 320 319 319 320 320 319 316 314 314 316 317 316 314 312 312 310 309 307 304 303 301 300 297 293 290
261 256 253 251 246 239 235 236 238 240 241 242 244 246 247 248 249 250 252 253 255 259 263 267 272 274 275 278 280 282 284 281 277 276 274 274 273 272 272 268 261 260 263 266 268 273 282 289 291 293 296 301 305 305 307 311 314 317 318 318 317 317 317 317 319 319 317 316 315 315 317 316 312 311 311 310 309 308 305 304 303 301 297 294 291
262 257 255 255 251 246 244 244 245 245 245 245 246 248 249 251 254 255 256 257 261 264 265 268 272 272 272 274 276 280 283 281 279 276 273 274 276 273 268 261 255 254 256 261 268 274 283 288 290 292 294 299 303 301 302 309 313 315 315 314 314 316 317 318 319 319 318 317 315 315 318 316 311 309 309 309 308 306 305 305 304 303 301 297 294
261 258 256 255 254 252 250 248 248 249 249 248 247 248 250 253 256 258 259 261 265 268 268 270 272 272 273 274 274 279 284 284 281 276 274 278 278 269 260 254 250 253 257 263 269 276 283 287 289 292 295 299 301 298 301 307 310 312 313 314 316 317 318 318 318 320 320 318 315 315 318 317 312 309 309 308 306 304 303 304 304 304 303 300 296
262 259 257 257 257 258 258 255 255 255 254 252 250 250 252 255 257 259 260 262 265 267 270 273 275 275 275 274 274 280 287 288 285 278 275 280 277 264 255 250 248 253 260 267 272 277 283 287 289 291 295 299 300 298 302 307 309 311 314 316 318 318 318 318 318 320 321 319 316 315 317 317 313 310 310 309 305 302 300 300 301 301 300 299 296
261 259 258 258 257 260 262 262 262 260 257 255 255 255 255 256 258 260 261 262 263 266 269 273 275 275 275 275 276 281 288 291 289 282 276 274 267 254 249 249 250 256 263 269 275 280 285 289 291 293 296 298 298 298 302 307 310 312 315 317 317 317 317 317 317 318 319 317 315 314 314 313 311 309 310 309 305 301 299 298 297 297 297 296 296
256 260 263 265 264 263 262 260 262 264 263 264 264 261 258 259 262 264 265 265 264 265 267 269 272 274 276 276 277 281 287 291 292 286 276 264 253 247 247 250 252 258 264 270 277 283 287 291 292 295 299 301 302 304 307 309 311 314 316 317 317 317 316 315 315 315 316 315 314 313 312 311 310 309 309 308 305 302 299 298 297 296 295 295 295
258 263 268 272 272 269 267 265 267 271 271 270 268 263 262 265 269 270 271 271 270 268 267 268 269 271 273 275 276 280 283 286 285 280 268 251 243 244 245 248 253 259 266 272 279 284 288 292 294 297 301 303 305 307 310 311 314 316 317 316 316 316 315 314 314 314 315 315 315 314 312 312 312 310 308 307 305 303 301 300 299 297 295 295 294
260 263 268 274 275 274 274 274 277 279 277 274 268 262 261 264 267 270 272 274 273 271 269 267 267 267 268 271 274 276 280 283 278 267 253 239 237 241 245 249 255 262 268 275 281 285 288 291 294 299 303 304 307 309 312 314 316 316 315 315 316 316 315 315 315 314 315 315 315 313 311 311 310 308 306 305 304 303 303 302 300 297 295 294 292
264 266 270 275 277 277 276 277 279 281 279 276 270 263 258 257 260 264 267 269 271 271 269 268 267 267 267 269 270 272 277 278 267 249 237 231 232 238 245 250 256 262 269 276 281 285 290 294 298 302 305 307 310 311 312 314 315 314 315 316 316 316 314 313 312 312 313 313 312 310 309 308 307 306 305 304 304 304 305 303 300 297 295 294 293
270 272 274 277 279 278 277 276 277 277 276 275 272 267 264 259 258 260 263 265 266 267 268 268 267 266 267 268 269 271 274 270 252 231 225 228 231 237 244 250 257 264 272 279 285 291 297 300 302 304 306 308 309 310 312 313 314 315 315 315 315 313 311 310 309 310 310 310 309 308 306 304 305 305 305 304 303 304 304 301 299 297 297 296 296
271 273 276 278 279 278 278 278 276 273 271 270 269 268 268 265 262 262 263 264 265 266 267 269 268 265 264 266 269 268 267 258 240 222 223 230 234 241 246 252 260 267 276 284 291 297 299 300 301 304 305 307 308 310 312 312 312 312 312 312 312 310 309 309 308 309 309 309 308 306 304 303 304 304 305 305 304 303 302 300 300 300 300 298 297
Height
3152 3152 3152 3152 3153 3153 3153 3153 3153 3152 3152 3152 3152 3152 3153 3153 3153 3154 3156 3157 3156 3156 3156 3156 3156 3158 3161 3162 3163 3163 3165 3167 3170 3171 3172 3172 3173 3174 3174 3175 3175 3176 3177 3177 3178 3178 3179 3180 3180 3181 3182 3182 3183 3183 3184 3184 3185 3185 3185 3186 3186 3187 3187 3187 3187 3187 3188 3188 3188 3188 3188 3188 3188 3188 3188 3188 3188 3188 3188 3187 3187 3186 3186 3185 3184
3151 3151 3152 3152 3153 3153 3153 3153 3152 3152 3152 3151 3151 3151 3152 3153 3153 3154 3156 3157 3157 3156 3155 3155 3154 3155 3160 3163 3161 3161 3163 3166 3169 3170 3170 3170 3171 3172 3173 3173 3173 3174 3175 3176 3176 3177 3177 3178 3179 3180 3180 3181 3181 3182 3183 3183 3184 3184 3184 3185 3185 3186 3186 3186 3187 3187 3187 3187 3187 3187 3187 3187 3187 3188 3188 3188 3188 3188 3188 3187 3187 3187 3186 3186 3185
3150 3149 3150 3151 3151 3152 3153 3153 3152 3152 3151 3151 3151 3151 3152 3152 3153 3154 3156 3157 3157 3155 3154 3154 3154 3155 3159 3161 3161 3162 3162 3164 3167 3168 3169 3169 3169 3170 3171 3172 3172 3172 3173 3174 3175 3175 3176 3177 3177 3178 3179 3180 3180 3181 3181 3182 3182 3183 3183 3184 3184 3185 3185 3185 3186 3186 3186 3186 3186 3186 3186 3187 3187 3187 3187 3187 3187 3187 3187 3187 3187 3187 3186 3186 3186
3149 3149 3149 3149 3149 3150 3151 3151 3151 3152 3151 3150 3150 3151 3151 3152 3153 3154 3155 3157 3156 3155 3154 3154 3156 3158 3158 3159 3162 3162 3162 3163 3165 3166 3167 3167 3168 3168 3169 3170 3171 3171 3172 3173 3173 3174 3174 3175 3176 3177 3178 3178 3179 3179 3180 3180 3181 3181 3182 3182 3183 3184 3184 3184 3185 3185 3185 3185 3186 3186 3186 3186 3186 3186 3186 3187 3187 3187 3187 3187 3186 3186 3186 3186 3186
3149 3150 3149 3148 3147 3148 3149 3150 3151 3151 3151 3150 3150 3151 3151 3151 3153 3153 3154 3156 3156 3155 3154 3155 3158 3160 3159 3159 3161 3162 3162 3163 3164 3164 3166 3166 3166 3166 3167 3168 3170 3171 3171 3171 3172 3173 3173 3174 3175 3176 3176 3177 3178 3178 3178 3179 3179 3180 3180 3181 3181 3182 3183 3183 3184 3184 3184 3184 3185 3185 3185 3185 3185 3185 3185 3186 3186 3186 3186 3186 3186 3186 3186 3185 3185
3148 3148 3148 3148 3148 3147 3148 3149 3150 3151 3150 3150 3151 3151 3151 3152 3153 3153 3154 3155 3156 3155 3154 3157 3160 3160 3160 3160 3160 3161 3161 3161 3163 3165 3166 3165 3164 3164 3165 3168 3170 3170 3170 3170 3171 3172 3172 3173 3174 3174 3175 3176 3176 3177 3177 3178 3178 3178 3179 3179 3180 3180 3181 3182 3182 3183 3183 3183 3183 3183 3183 3184 3184 3184 3184 3184 3184 3185 3185 3185 3185 3185 3185 3184 3184
3146 3147 3147 3148 3148 3148 3148 3149 3149 3150 3150 3150 3151 3151 3151 3152 3153 3153 3154 3155 3157 3156 3154 3157 3159 3159 3160 3161 3161 3161 3161 3160 3162 3166 3167 3165 3162 3162 3165 3167 3167 3168 3168 3170 3170 3171 3171 3172 3172 3173 3173 3174 3174 3175 3175 3176 3176 3177 3177 3178 3178 3179 3179 3180 3180 3181 3181 3182 3182 3182 3182 3182 3183 3183 3183 3183 3183 3183 3183 3183 3183 3183 3183 3183 3183
3145 3145 3146 3146 3147 3147 3147 3148 3149 3150 3150 3150 3151 3151 3151 3152 3153 3152 3154 3155 3157 3156 3155 3158 3161 3159 3160 3161 3161 3162 3161 3161 3161 3164 3166 3165 3161 3160 3164 3166 3166 3167 3168 3169 3170 3170 3170 3170 3171 3172 3172 3172 3172 3173 3173 3174 3174 3175 3175 3176 3176 3177 3177 3178 3178 3179 3179 3180 3180 3180 3181 3181 3181 3181 3181 3181 3181 3182 3182 3182 3182 3182 3182 3182 3182
3144 3145 3145 3145 3146 3146 3146 3147 3149 3150 3150 3150 3150 3151 3151 3152 3153 3153 3153 3155 3156 3156 3156 3160 3162 3161 3160 3161 3161 3161 3162 3162 3161 3162 3163 3163 3161 3159 3163 3167 3167 3167 3168 3168 3169 3169 3169 3169 3170 3170 3170 3170 3171 3171 3172 3173 3173 3173 3174 3174 3174 3175 3176 3176 3176 3177 3177 3177 3178 3178 3179 3179 3180 3180 3180 3180 3180 3180 3180 3180 3180 3180 3180 3180 3180
3144 3144 3145 3145 3146 3145 3146 3147 3148 3150 3150 3150 3149 3150 3151 3152 3153 3153 3154 3156 3156 3156 3157 3160 3161 3161 3160 3160 3161 3162 3162 3162 3162 3162 3162 3162 3161 3158 3162 3167 3167 3167 3167 3167 3167 3167 3168 3168 3168 3168 3168 3169 3169 3170 3171 3171 3172 3172 3172 3172 3173 3173 3174 3174 3175 3175 3175 3176 3176 3176 3177 3177 3178 3178 3178 3178 3178 3178 3178 3179 3178 3179 3179 3179 3179
3143 3144 3145 3146 3146 3145 3145 3146 3148 3150 3150 3150 3149 3149 3151 3151 3152 3153 3153 3155 3156 3156 3157 3159 3160 3161 3161 3160 3161 3161 3162 3162 3162 3162 3162 3162 3161 3160 3163 3165 3166 3166 3166 3166 3166 3166 3166 3166 3167 3167 3166 3167 3167 3168 3169 3170 3170 3171 3171 3171 3172 3172 3172 3173 3173 3173 3173 3174 3174 3174 3175 3175 3176 3176 3176 3176 3176 3176 3176 3176 3177 3177 3177 3177 3177
3143 3144 3145 3145 3145 3144 3145 3145 3147 3149 3149 3149 3148 3149 3150 3151 3152 3153 3154 3155 3156 3156 3156 3157 3159 3160 3161 3161 3161 3161 3161 3161 3161 3161 3162 3162 3161 3162 3163 3164 3165 3164 3163 3164 3165 3164 3164 3164 3164 3164 3164 3165 3166 3167 3168 3168 3168 3169 3169 3170 3170 3170 3171 3171 3171 3171 3172 3172 3172 3172 3172 3173 3173 3173 3174 3174 3174 3174 3174 3174 3174 3175 3175 3175 3175
3143 3143 3144 3144 3145 3145 3144 3144 3146 3148 3147 3148 3148 3148 3150 3151 3152 3153 3154 3155 3155 3156 3156 3156 3158 3159 3160 3161 3161 3161 3161 3161 3161 3162 3162 3162 3161 3161 3162 3164 3165 3164 3163 3163 3163 3163 3163 3162 3162 3163 3163 3165 3166 3166 3166 3166 3166 3167 3168 3169 3169 3169 3169 3170 3170 3170 3170 3170 3170 3170 3170 3171 3171 3171 3171 3171 3172 3172 3172 3172 3172 3173 3173 3173 3174
3143 3143 3143 3144 3145 3145 3144 3143 3145 3146 3146 3147 3147 3147 3149 3150 3151 3152 3153 3154 3155 3156 3155 3155 3157 3159 3159 3160 3161 3160 3160 3161 3161 3162 3161 3162 3162 3162 3162 3162 3163 3164 3164 3163 3162 3162 3162 3162 3162 3162 3163 3164 3165 3164 3164 3165 3165 3166 3167 3167 3168 3168 3168 3168 3169 3169 3169 3169 3169 3169 3169 3169 3169 3169 3169 3169 3170 3170 3170 3170 3170 3171 3171 3171 3171
3142 3142 3143 3144 3144 3144 3144 3143 3144 3145 3145 3146 3147 3147 3149 3150 3151 3151 3152 3153 3154 3155 3155 3155 3157 3158 3159 3159 3160 3159 3159 3160 3161 3161 3162 3162 3162 3162 3162 3162 3162 3162 3163 3163 3162 3161 3161 3162 3163 3162 3162 3162 3162 3162 3163 3163 3164 3165 3166 3166 3166 3166 3167 3167 3167 3167 3167 3168 3168 3168 3168 3168 3167 3167 3167 3167 3167 3168 3168 3168 3168 3168 3169 3169 3169
3142 3142 3142 3143 3143 3143 3143 3143 3143 3143 3144 3145 3146 3147 3149 3150 3150 3151 3152 3152 3153 3155 3155 3155 3156 3157 3158 3158 3159 3159 3159 3159 3160 3161 3162 3162 3162 3162 3162 3162 3162 3161 3161 3161 3161 3160 3160 3161 3162 3161 3161 3161 3161 3161 3162 3163 3163 3164 3165 3165 3165 3165 3165 3166 3166 3166 3166 3166 3166 3166 3166 3166 3166 3165 3165 3165 3165 3165 3165 3166 3166 3166 3166 3167 3167
3143 3142 3142 3142 3142 3142 3142 3143 3142 3142 3143 3143 3144 3146 3147 3149 3149 3150 3151 3152 3154 3156 3155 3154 3155 3156 3157 3157 3157 3158 3158 3159 3160 3160 3161 3162 3162 3162 3162 3162 3162 3161 3160 3160 3160 3160 3160 3160 3160 3160 3161 3161 3161 3161 3162 3162 3162 3163 3163 3163 3164 3164 3164 3164 3164 3164 3164 3164 3164 3164 3164 3164 3163 3163 3163 3163 3163 3163 3163 3163 3164 3164 3165 3165 3166
3142 3142 3141 3141 3141 3141 3141 3142 3142 3141 3142 3142 3143 3144 3145 3147 3148 3150 3150 3150 3152 3154 3154 3154 3154 3155 3155 3155 3156 3157 3158 3158 3159 3160 3160 3161 3161 3161 3161 3161 3161 3161 3160 3160 3159 3159 3159 3160 3159 3159 3160 3160 3160 3161 3161 3161 3162 3162 3162 3163 3163 3163 3163 3163 3163 3163 3162 3162 3162 3161 3161 3161 3161 3161 3161 3161 3160 3160 3161 3161 3162 3162 3163 3164 3164
3142 3141 3141 3140 3140 3140 3141 3141 3141 3141 3141 3141 3142 3143 3144 3145 3146 3148 3149 3149 3149 3151 3152 3153 3153 3154 3154 3154 3155 3156 3157 3157 3158 3159 3159 3160 3160 3160 3161 3161 3161 3160 3160 3160 3159 3158 3158 3159 3159 3159 3160 3160 3160 3161 3161 3161 3161 3161 3161 3162 3162 3162 3162 3162 3162 3161 3161 3161 3160 3159 3159 3159 3159 3159 3159 3158 3157 3158 3159 3160 3160 3160 3161 3161 3161
3141 3141 3140 3140 3139 3139 3140 3140 3141 3142 3142 3141 3141 3142 3142 3143 3144 3145 3147 3147 3147 3149 3150 3152 3153 3154 3154 3154 3154 3155 3156 3156 3157 3158 3158 3159 3160 3160 3160 3160 3160 3160 3160 3160 3159 3158 3158 3158 3159 3160 3160 3160 3160 3160 3160 3161 3161 3161 3161 3161 3161 3161 3161 3160 3160 3160 3160 3159 3159 3158 3158 3158 3157 3157 3156 3156 3156 3156 3157 3157 3158 3158 3158 3159 3158
3140 3140 3140 3139 3139 3139 3139 3139 3140 3141 3141 3141 3142 3142 3142 3143 3144 3145 3146 3147 3147 3148 3149 3150 3151 3152 3153 3153 3153 3153 3155 3156 3156 3157 3157 3158 3159 3159 3159 3159 3159 3159 3159 3159 3159 3159 3158 3158 3158 3159 3160 3159 3160 3160 3160 3160 3160 3160 3160 3160 3160 3160 3160 3160 3159 3159 3158 3158 3158 3157 3157 3156 3156 3155 3155 3154 3154 3154 3155 3154 3155 3156 3156 3156 3155
3140 3139 3139 3139 3138 3138 3138 3138 3139 3140 3140 3141 3142 3142 3143 3143 3144 3145 3145 3146 3147 3148 3149 3149 3150 3151 3152 3152 3152 3153 3155 3155 3155 3157 3157 3158 3158 3158 3158 3159 3159 3159 3159 3159 3159 3159 3158 3158 3158 3159 3159 3159 3159 3159 3159 3159 3159 3159 3159 3159 3159 3159 3159 3159 3158 3158 3157 3157 3156 3156 3156 3155 3155 3154 3154 3153 3152 3152 3152 3152 3152 3153 3153 3153 3152
3139 3139 3139 3138 3138 3138 3138 3138 3138 3139 3140 3140 3141 3142 3142 3143 3144 3144 3145 3146 3147 3148 3148 3149 3149 3150 3151 3152 3152 3153 3154 3155 3156 3157 3157 3157 3158 3157 3158 3158 3158 3158 3158 3158 3158 3158 3159 3158 3159 3160 3160 3159 3159 3159 3159 3159 3159 3159 3159 3159 3159 3158 3158 3158 3158 3157 3157 3156 3156 3156 3155 3155 3154 3154 3153 3152 3151 3151 3151 3150 3150 3149 3150 3150 3150
3138 3138 3138 3138 3138 3137 3137 3137 3137 3138 3139 3140 3141 3141 3142 3142 3143 3144 3145 3145 3146 3147 3147 3148 3149 3149 3150 3151 3151 3152 3153 3154 3155 3156 3156 3157 3157 3156 3157 3157 3158 3158 3157 3158 3158 3158 3158 3158 3159 3159 3160 3159 3159 3159 3159 3159 3159 3158 3158 3158 3158 3158 3158 3157 3157 3157 3157 3156 3156 3155 3155 3154 3154 3153 3152 3152 3151 3150 3149 3149 3148 3148 3147 3147 3147
3138 3138 3137 3137 3137 3137 3137 3137 3137 3137 3138 3139 3140 3140 3141 3142 3142 3143 3144 3145 3146 3146 3147 3147 3148 3148 3149 3149 3150 3151 3152 3153 3154 3155 3155 3157 3157 3156 3156 3157 3157 3157 3157 3157 3157 3158 3158 3158 3158 3159 3159 3159 3159 3159 3159 3159 3158 3158 3158 3158 3157 3157 3157 3157 3157 3157 3156 3156 3155 3155 3154 3154 3153 3153 3152 3151 3150 3149 3149 3148 3147 3146 3146 3145 3145
3137 3137 3136 3136 3136 3136 3136 3136 3136 3137 3137 3138 3139 3140 3141 3141 3141 3142 3143 3145 3145 3146 3146 3147 3147 3148 3149 3149 3150 3151 3152 3153 3153 3154 3155 3157 3157 3156 3156 3156 3157 3157 3156 3157 3157 3157 3158 3158 3158 3158 3159 3159 3159 3159 3159 3159 3158 3158 3158 3157 3157 3157 3157 3157 3156 3156 3156 3155 3155 3154 3154 3153 3153 3152 3151 3151 3150 3149 3148 3147 3146 3146 3145 3144 3144
3136 3136 3136 3135 3135 3136 3136 3136 3136 3136 3137 3138 3139 3140 3140 3141 3141 3142 3144 3145 3145 3145 3146 3147 3147 3148 3149 3150 3150 3151 3151 3152 3152 3153 3155 3156 3156 3156 3156 3157 3157 3158 3157 3157 3158 3158 3158 3158 3158 3158 3159 3159 3159 3159 3159 3159 3158 3158 3158 3157 3157 3157 3157 3156 3156 3156 3155 3155 3154 3154 3153 3153 3152 3151 3151 3150 3149 3149 3148 3147 3146 3145 3145 3144 3143
3135 3135 3134 3135 3135 3135 3135 3135 3136 3136 3137 3137 3138 3140 3141 3141 3142 3142 3143 3144 3145 3145 3146 3146 3147 3148 3148 3149 3150 3150 3151 3151 3152 3152 3153 3154 3155 3156 3157 3157 3158 3159 3158 3158 3158 3158 3158 3158 3158 3158 3159 3159 3159 3159 3158 3158 3158 3158 3158 3157 3157 3157 3157 3156 3156 3155 3155 3154 3154 3153 3152 3152 3151 3150 3150 3149 3149 3148 3147 3147 3146 3145 3144 3144 3143
3133 3133 3133 3134 3134 3134 3134 3135 3135 3136 3136 3137 3138 3139 3140 3141 3142 3143 3144 3144 3145 3146 3146 3147 3147 3148 3148 3149 3149 3150 3151 3152 3152 3152 3153 3153 3154 3155 3156 3157 3157 3158 3157 3157 3158 3158 3158 3158 3159 3159 3159 3159 3159 3158 3158 3158 3158 3158 3157 3157 3157 3157 3157 3156 3156 3155 3155 3154 3153 3153 3152 3151 3150 3150 3149 3148 3147 3147 3146 3146 3145 3144 3144 3143 3142
3132 3132 3132 3133 3133 3133 3134 3134 3135 3136 3136 3137 3137 3139 3140 3141 3142 3143 3144 3144 3145 3146 3146 3147 3148 3148 3149 3149 3150 3150 3151 3152 3152 3153 3153 3154 3154 3154 3155 3155 3156 3156 3156 3156 3157 3158 3158 3158 3158 3159 3159 3159 3158 3158 3158 3157 3157 3157 3157 3157 3157 3156 3156 3156 3155 3155 3154 3153 3153 3152 3151 3150 3150 3149 3148 3147 3146 3145 3145 3144 3143 3143 3142 3142 3141
3130 3131 3131 3132 3132 3132 3133 3134 3135 3136 3136 3137 3137 3138 3139 3141 3142 3143 3144 3144 3145 3146 3146 3147 3148 3149 3149 3150 3150 3151 3151 3152 3153 3153 3154 3154 3155 3154 3155 3155 3155 3156 3156 3156 3157 3157 3158 3158 3157 3157 3157 3157 3157 3157 3157 3156 3156 3156 3156 3156 3156 3155 3155 3155 3154 3154 3153 3152 3152 3151 3151 3150 3149 3148 3147 3146 3145 3144 3143 3143 3142 3141 3141 3140 3139
3129 3129 3130 3131 3131 3132 3133 3134 3135 3136 3137 3137 3138 3138 3139 3140 3141 3142 3143 3144 3145 3146 3147 3147 3148 3149 3150 3150 3151 3151 3152 3153 3153 3154 3154 3155 3155 3155 3155 3155 3155 3156 3155 3156 3156 3157 3157 3157 3157 3157 3156 3156 3156 3156 3156 3155 3155 3155 3155 3154 3154 3154 3154 3153 3153 3153 3152 3152 3151 3150 3149 3149 3148 3147 3146 3145 3144 3143 3142 3141 3141 3140 3139 3138 3138
3127 3128 3128 3129 3130 3131 3133 3134 3135 3136 3137 3138 3138 3139 3140 3141 3142 3143 3144 3145 3146 3146 3147 3148 3149 3149 3150 3151 3151 3152 3152 3153 3153 3154 3154 3154 3155 3155 3155 3155 3155 3155 3155 3155 3156 3156 3155 3155 3155 3155 3155 3155 3154 3155 3155 3154 3153 3153 3153 3153 3152 3152 3152 3153 3153 3152 3151 3150 3149 3148 3148 3147 3146 3146 3145 3144 3143 3142 3141 3140 3139 3138 3137 3137 3136
3126 3126 3127 3128 3130 3131 3132 3134 3135 3136 3137 3138 3139 3140 3141 3141 3142 3143 3144 3145 3146 3147 3148 3148 3149 3150 3150 3151 3151 3151 3152 3152 3153 3154 3154 3154 3154 3153 3154 3154 3155 3155 3154 3154 3153 3154 3154 3154 3153 3153 3154 3153 3152 3152 3153 3152 3151 3151 3151 3151 3150 3149 3150 3150 3150 3150 3150 3149 3148 3146 3145 3145 3144 3144 3143 3142 3141 3140 3139 3138 3137 3136 3136 3135 3134
3124 3125 3126 3127 3129 3130 3132 3134 3135 3136 3137 3138 3139 3140 3141 3142 3143 3144 3145 3146 3147 3147 3148 3149 3149 3150 3150 3151 3151 3151 3152 3152 3152 3153 3153 3153 3152 3152 3152 3153 3154 3154 3154 3153 3151 3151 3151 3151 3151 3151 3152 3153 3151 3150 3151 3151 3150 3150 3149 3149 3148 3147 3147 3147 3147 3147 3147 3147 3146 3145 3143 3142 3142 3141 3140 3139 3138 3138 3137 3136 3135 3134 3134 3132 3131
3124 3124 3125 3127 3129 3130 3133 3134 3135 3136 3137 3138 3139 3140 3141 3142 3143 3144 3145 3146 3147 3147 3148 3149 3149 3150 3150 3150 3151 3151 3151 3151 3152 3152 3152 3152 3151 3152 3152 3152 3152 3153 3152 3151 3150 3150 3150 3149 3149 3149 3150 3150 3149 3148 3148 3148 3149 3149 3148 3147 3147 3145 3144 3144 3143 3143 3143 3143 3143 3142 3141 3140 3139 3138 3137 3136 3135 3134 3134 3133 3133 3132 3131 3130 3129
3124 3125 3126 3127 3129 3130 3133 3134 3135 3137 3137 3138 3139 3140 3141 3142 3143 3144 3145 3145 3146 3147 3147 3148 3148 3149 3149 3150 3150 3150 3150 3151 3151 3151 3152 3151 3150 3151 3151 3150 3150 3151 3151 3150 3149 3150 3149 3148 3148 3147 3148 3148 3147 3147 3146 3146 3146 3146 3145 3145 3144 3143 3142 3141 3140 3139 3138 3138 3139 3139 3139 3138 3136 3135 3134 3134 3133 3131 3130 3130 3129 3128 3128 3127 3125
3124 3125 3126 3127 3129 3130 3132 3134 3135 3136 3137 3138 3139 3140 3141 3142 3142 3143 3144 3145 3146 3146 3146 3147 3147 3147 3148 3148 3149 3149 3150 3150 3150 3150 3151 3151 3150 3150 3150 3149 3148 3148 3149 3149 3148 3148 3148 3147 3147 3146 3146 3146 3146 3146 3145 3144 3143 3143 3143 3143 3142 3142 3141 3140 3139 3137 3136 3135 3134 3134 3134 3134 3133 3132 3131 3130 3129 3128 3127 3127 3126 3125 3124 3123 3121
3124 3125 3126 3127 3129 3130 3132 3133 3134 3135 3136 3137 3138 3139 3140 3141 3142 3142 3143 3144 3144 3145 3145 3145 3145 3146 3146 3146 3147 3148 3148 3148 3148 3149 3149 3149 3149 3148 3149 3148 3147 3146 3148 3148 3148 3147 3146 3146 3145 3145 3144 3144 3143 3143 3143 3143 3142 3140 3140 3141 3140 3139 3138 3137 3136 3135 3134 3132 3131 3130 3129 3128 3128 3127 3127 3126 3125 3124 3123 3123 3122 3122 3120 3119 3117
3124 3125 3126 3127 3128 3129 3131 3132 3133 3134 3135 3135 3136 3138 3139 3139 3140 3141 3142 3143 3143 3143 3144 3143 3143 3144 3145 3146 3146 3146 3147 3147 3146 3147 3147 3147 3147 3147 3147 3147 3146 3146 3146 3146 3146 3146 3145 3144 3143 3143 3143 3142 3142 3140 3139 3139 3139 3138 3137 3137 3136 3135 3135 3134 3134 3132 3130 3129 3128 3127 3126 3124 3122 3122 3122 3121 3121 3120 3119 3118 3118 3118 3116 3115 3113
3123 3124 3125 3126 3128 3129 3129 3130 3131 3132 3133 3134 3135 3136 3137 3138 3139 3140 3141 3141 3141 3142 3142 3141 3141 3142 3143 3144 3144 3144 3145 3145 3145 3145 3145 3145 3145 3145 3145 3145 3144 3144 3144 3144 3144 3144 3144 3143 3142 3141 3141 3140 3140 3138 3137 3136 3136 3135 3134 3134 3133 3132 3131 3131 3131 3130 3127 3125 3124 3124 3124 3122 3119 3117 3117 3116 3115 3114 3113 3113 3113 3113 3112 3110 3109
3122 3124 3124 3125 3127 3127 3128 3129 3129 3130 3131 3132 3133 3135 3136 3137 3138 3139 3139 3139 3139 3139 3140 3140 3140 3140 3141 3142 3142 3142 3143 3143 3143 3142 3142 3142 3143 3142 3142 3142 3142 3142 3142 3142 3142 3142 3141 3141 3140 3139 3138 3138 3137 3136 3135 3134 3133 3133 3132 3131 3130 3129 3128 3126 3127 3126 3124 3121 3119 3120 3121 3119 3115 3113 3114 3113 3111 3109 3107 3106 3106 3107 3107 3106 3104
3121 3122 3123 3124 3125 3126 3127 3127 3127 3128 3129 3130 3131 3133 3134 3135 3136 3137 3138 3137 3137 3137 3137 3138 3138 3138 3139 3139 3139 3140 3140 3140 3140 3140 3139 3139 3139 3139 3139 3139 3139 3139 3139 3139 3139 3139 3139 3139 3138 3137 3136 3135 3135 3134 3133 3132 3131 3130 3129 3128 3127 3125 3123 3122 3121 3121 3121 3118 3114 3114 3116 3116 3112 3109 3110 3109 3107 3105 3103 3101 3100 3100 3100 3099 3098
3121 3121 3122 3123 3123 3124 3125 3125 3126 3127 3126 3127 3130 3132 3133 3134 3134 3135 3135 3135 3135 3135 3134 3135 3135 3134 3135 3135 3136 3137 3137 3137 3137 3136 3136 3136 3136 3136 3136 3136 3136 3136 3136 3136 3136 3136 3136 3136 3135 3134 3134 3133 3132 3131 3131 3130 3128 3127 3126 3124 3123 3121 3119 3118 3116 3116 3116 3114 3110 3108 3109 3111 3109 3105 3105 3105 3104 3101 3099 3098 3096 3094 3093 3093 3092
3120 3120 3121 3121 3122 3122 3123 3124 3125 3124 3123 3125 3128 3130 3131 3131 3131 3131 3132 3132 3133 3132 3131 3131 3131 3130 3130 3131 3131 3131 3132 3133 3132 3132 3132 3132 3132 3132 3132 3133 3133 3134 3134 3134 3133 3133 3133 3133 3132 3132 3131 3131 3129 3129 3128 3127 3125 3124 3122 3121 3120 3118 3116 3115 3113 3112 3111 3110 3107 3103 3102 3104 3103 3101 3100 3099 3099 3097 3095 3093 3092 3090 3088 3087 3086
3118 3118 3118 3119 3120 3120 3121 3121 3121 3120 3122 3124 3126 3127 3128 3128 3128 3128 3128 3128 3128 3128 3128 3128 3126 3126 3126 3126 3126 3126 3127 3128 3128 3127 3127 3127 3127 3128 3129 3130 3130 3131 3131 3131 3131 3130 3130 3130 3129 3128 3128 3128 3126 3125 3125 3124 3122 3121 3119 3118 3117 3115 3113 3111 3110 3108 3107 3106 3103 3099 3097 3097 3097 3096 3094 3093 3092 3092 3090 3089 3087 3085 3083 3082 3081
3115 3115 3115 3116 3117 3118 3117 3117 3117 3118 3119 3121 3123 3124 3124 3125 3124 3123 3123 3123 3123 3123 3124 3123 3122 3123 3122 3121 3121 3122 3122 3124 3124 3123 3123 3124 3124 3124 3126 3127 3127 3128 3128 3128 3128 3127 3127 3126 3126 3125 3125 3124 3123 3122 3121 3120 3119 3118 3116 3114 3113 3111 3109 3107 3106 3104 3102 3101 3098 3094 3091 3090 3090 3089 3088 3087 3086 3085 3085 3084 3082 3080 3078 3077 3076
3112 3112 3113 3114 3115 3115 3115 3115 3115 3115 3115 3117 3119 3120 3120 3120 3120 3119 3119 3118 3117 3117 3118 3118 3118 3118 3118 3117 3118 3118 3117 3119 3120 3119 3119 3121 3121 3121 3122 3123 3124 3125 3125 3125 3125 3124 3124 3123 3122 3122 3121 3120 3119 3118 3117 3116 3115 3114 3112 3110 3109 3107 3104 3102 3101 3099 3097 3095 3093 3090 3086 3084 3084 3083 3082 3081 3080 3079 3079 3079 3077 3075 3074 3072 3071
3109 3110 3110 3110 3111 3112 3112 3112 3112 3112 3112 3113 3114 3116 3116 3116 3115 3115 3115 3114 3113 3112 3111 3112 3112 3113 3112 3113 3114 3113 3113 3115 3115 3115 3115 3117 3117 3118 3119 3120 3121 3121 3122 3122 3122 3121 3121 3120 3119 3118 3117 3116 3115 3114 3113 3112 3111 3109 3108 3106 3105 3102 3100 3097 3095 3094 3092 3090 3088 3085 3082 3080 3079 3077 3076 3076 3075 3074 3074 3073 3072 3070 3069 3067 3066
3106 3106 3106 3107 3107 3108 3108 3108 3108 3108 3107 3108 3109 3110 3111 3111 3111 3110 3110 3110 3110 3108 3106 3106 3107 3107 3107 3107 3108 3109 3110 3111 3111 3111 3111 3113 3114 3115 3116 3117 3118 3118 3118 3118 3118 3117 3117 3116 3115 3114 3113 3112 3112 3111 3110 3108 3106 3105 3103 3101 3100 3098 3096 3093 3091 3089 3087 3086 3083 3081 3078 3076 3074 3072 3070 3070 3070 3070 3069 3068 3066 3065 3064 3062 3060
3102 3102 3102 3102 3102 3102 3103 3103 3103 3103 3103 3103 3104 3105 3106 3106 3106 3106 3105 3104 3105 3104 3102 3102 3102 3102 3102 3102 3102 3104 3106 3106 3106 3107 3108 3109 3110 3112 3113 3114 3114 3115 3115 3115 3114 3113 3113 3112 3111 3110 3109 3109 3108 3107 3106 3104 3102 3101 3099 3097 3096 3094 3092 3089 3087 3084 3082 3081 3079 3077 3074 3072 3070 3069 3067 3064 3063 3064 3065 3063 3061 3060 3058 3056 3054